Regional Weather Roundup
Issued by NWS

Home | Current Version | Previous Version | Text Only | Print | Product List | Glossary Off
Versions: 1 2 3 4 5 6 7 8 9 10 11 12 13 14 15 16 17 18 19 20 21 22 23 24 25 26 27 28 29 30 31 32 33 34 35 36 37 38 39 40 41 42 43 44 45 46 47 48 49 50

000
ASUS43 KLOT 222203
RWRIL

ILLINOIS REGIONAL WEATHER ROUNDUP
NATIONAL WEATHER SERVICE CHICAGO/ROMEOVILLE IL
500 PM CDT SUN APR 22 2018

NOTE: "FAIR" INDICATES FEW OR NO CLOUDS BELOW 12,000 FEET WITH NO
SIGNIFICANT WEATHER AND/OR OBSTRUCTIONS TO VISIBILITY.

* THESE STATIONS ARE NOT UNDER NWS QUALITY CONTROL. THEY ALSO MAY NOT
  REPORT WEATHER SUCH AS PRECIPITATION OR FOG.

ILZ001-002-007-009-015-016-024-222300-
NORTHWEST ILLINOIS

CITY           SKY/WX    TMP DP  RH WIND       PRES   REMARKS
MOLINE         FAIR      67  31  26 E16       30.18F
STERLING*      FAIR      64  31  28 E18       30.21S
SAVANNA*       FAIR      65  30  26 NE15      30.22S
$$

ILZ003-004-008-010-011-017-018-222300-
NORTH CENTRAL ILLINOIS

CITY           SKY/WX    TMP DP  RH WIND       PRES   REMARKS
ROCKFORD       FAIR      62  23  22 E16G22    30.25F
FREEPORT*      FAIR      63  29  28 E17       30.24F
ROCHELLE*      FAIR      61  28  27 E15       30.24S
DE KALB*       FAIR      60  24  25 E17       30.25S
PERU*          FAIR      65  30  26 E16       30.20S
$$

ILZ005-006-012>014-019>023-222300-
NORTHEAST ILLINOIS

CITY           SKY/WX    TMP DP  RH WIND       PRES   REMARKS
CHICAGO-OHARE  PTSUNNY   60  26  27 NE14      30.25F
CHICAGO-MIDWAY PTSUNNY   59  26  28 NE16      30.25F
AURORA         FAIR      62  24  23 E16       30.24S
LANSING*       FAIR      56  34  43 NE12      30.24F
JOLIET*        FAIR      63  28  26 E14       30.23S
WAUKEGAN       NOT AVBL
DUPAGE AIRPORT FAIR      60  26  27 E16       30.24S
KANKAKEE*      FAIR      67  28  22 E15       30.20F
WHEELING       FAIR      59  26  28 NE10      30.28F
MORRIS*        FAIR      63  26  24 E14G20    30.21S
ROMEOVILLE*    FAIR      61  28  28 E15       30.23F
NORTHERLY ISL    N/A     48  31  52 MISG        N/A
$$

LMZ740>746-222300-
SOUTHERN LAKE MICHIGAN

STATION/POSITION SKY/WX   TEMP    WIND        PRES    VSBY  WAVE
                          AIR SEA DIR/SP/G                  HT/PER
                          (F)     (DEG/KT/KT) (MB)    (MI)  (FT/S)
HARRISON CRIB              44      10/ 13/ 14   N/A
BURNHAM HARBOR             48     330/ 12/ 15   N/A
CALUMET HARBOR             45     350/ 12/ 15 1024.0F
BURNS HARBOR               45      80/ 11/ 13 1025.1S
MICHIGAN CITY              43      40/ 11/ 12   N/A
$$

ILZ025>027-034>036-040-047-049-050-058-095>099-222300-
WEST-CENTRAL ILLINOIS

CITY           SKY/WX    TMP DP  RH WIND       PRES   REMARKS
QUINCY         CLOUDY    64  29  26 NE16      30.10S
GALESBURG*     CLOUDY    66  24  20 E13       30.18S
MACOMB*        CLOUDY    65  24  20 E17       30.17S
JACKSONVILLE*  CLOUDY    67  30  24 NE22G29   30.09S
PITTSFIELD*    CLOUDY    67  31  26 NE16G26   30.10R
$$

ILZ028>032-037-038-041>044-048-051>054-059>061-222300-
CENTRAL ILLINOIS

CITY           SKY/WX    TMP DP  RH WIND       PRES   REMARKS
PONTIAC        FAIR      67  26  21 E20G25    30.18F
BLOOMINGTON    FAIR      65  24  21 E23       30.16F
DECATUR        FAIR      67  31  26 E22       30.10F
PEORIA         PTSUNNY   66  25  21 E16G30    30.15F
LACON*         FAIR      65  24  21 E15G23    30.17F
LINCOLN*       CLOUDY    69  25  19 E21       30.12S
SPRINGFIELD    PTSUNNY   69  30  23 E22G28    30.10S
TAYLORVILLE    PTSUNNY   67  31  25 E15G25    30.09R
$$

ILZ033-039-045-046-055>057-062-063-222300-
EAST-CENTRAL ILLINOIS

CITY           SKY/WX    TMP DP  RH WIND       PRES   REMARKS
CHAMPAIGN      FAIR      67  26  21 E21       30.13F
DANVILLE*      FAIR      67  30  25 E16G24    30.14S
RANTOUL*       FAIR      68  28  22 E18G25    30.15F
MATTOON        FAIR      67  34  29 E16G22    30.09F
PARIS*         FAIR      67  32  26 E17G23    30.14S
$$

ILZ079-100>102-222300-
SOUTHWEST ILLINOIS

CITY           SKY/WX    TMP DP  RH WIND       PRES   REMARKS
ALTON          LGT RAIN  63  45  51 E12       30.06S
BELLEVILLE     LGT RAIN  59  48  67 NE3       30.03F
CAHOKIA*       LGT RAIN  57  48  72 N6        30.05S
SPARTA*        LGT RAIN  54  53  96 N6        30.03F
$$

ILZ064>066-069>071-074>076-080>082-084>086-088>090-092>094-222300-
SOUTH-CENTRAL ILLINOIS

CITY           SKY/WX    TMP DP  RH WIND       PRES   REMARKS
CARBONDALE     LGT RAIN  58  55  90 E12       30.00F
CAIRO*         LGT RAIN  58  56  95 E15G23    29.96F
EFFINGHAM*     PTSUNNY   68  41  37 NE10      30.08F
MARION         LGT RAIN  57  57 100 E12       30.02F
MT. VERNON     LGT RAIN  62  53  72 E7        30.05S
CENTRALIA*     LGT RAIN  65  48  53 E8        30.04R
SALEM*         LGT RAIN  67  43  41 NE7       30.05S
METROPOLIS*    RAIN      59  58  95 E7        29.99F
$$

ILZ067-068-072-073-078-083-087-091-222300-
SOUTHEAST ILLINOIS

CITY           SKY/WX    TMP DP  RH WIND       PRES   REMARKS
LAWRENCEVILLE  CLOUDY    69  42  37 E16       30.08F
FLORA*         LGT RAIN  69  46  43 E10       30.05F
FAIRFIELD*     LGT RAIN  63  53  69 E3        30.04S
HARRISBURG*    LGT RAIN  59  57  93 E7        30.04S
ROBINSON*      FAIR      67  40  36 E13       30.10S
CARMI*         DRIZZLE   64  52  66 E13G21    30.05R
$$

ABBREVIATIONS USED IN REMARKS
   TC - TEMPERATURE IN CELSIUS
  WCI - WIND CHILL INDEX
   HX - HEAT INDEX
  VSB - VISIBILITY
$$




USA.gov is the U.S. government's official web portal to all federal, state and local government web resources and services.